カタログに戻る

STARLINK-35741

運用中通信VLEO
NORAD 66272·PAYLOAD·🇺🇸 United States

打ち上げ Oct 31, 2025 から Vandenberg Space Force Base

Loading…

次のパス (今後24時間)

TLE

最新Source: CelesTrak SupGP

元期: Sep 14, 2026, 21:24 UTC

1 66272C 25247H   26257.89215278  .00034913  00000+0  10308-2 0  2577
2 66272  53.1589  27.9971 0000966  56.9233  49.2618 15.34393524    10

AllMySatでSTARLINK-35741をリアルタイム追跡

Download on the App Store